Temperature
19 19 18 18 18 18 17 17 17 17 17 17 17 17 17 17 17 16 16 16 16 16 16 16 17 16 16 16 16 16 16 16 16 16 16 15 15 15 15 15 15 15 15
19 18 18 18 17 17 17 17 17 17 17 17 17 17 17 16 16 16 16 16 16 16 16 16 16 16 16 16 16 16 16 16 15 15 15 15 15 15 15 15 15 15 15
18 18 18 17 17 17 17 17 17 17 17 17 17 16 16 16 16 16 16 16 16 16 16 15 15 15 16 16 16 15 15 15 15 15 15 15 15 15 15 15 15 14 14
18 18 18 17 17 17 17 17 17 16 16 16 16 16 16 16 16 15 15 15 15 15 15 15 15 15 15 15 15 15 15 15 15 15 15 15 14 15 15 15 15 14 14
18 18 17 17 17 17 16 16 16 16 16 16 16 16 16 15 15 15 15 15 15 15 15 15 15 15 15 15 14 14 14 14 14 14 14 14 14 14 14 14 14 14 14
18 18 17 17 17 16 16 16 16 16 16 16 16 16 15 15 15 15 15 15 15 14 14 14 14 14 14 14 14 14 14 14 14 14 14 14 14 14 14 14 14 13 14
17 17 17 17 16 16 16 15 15 15 15 15 15 15 15 15 15 14 14 14 14 14 14 14 14 14 14 14 14 14 13 13 13 13 13 13 13 14 13 13 13 13 13
17 17 17 16 16 16 15 15 15 15 15 15 15 15 15 15 14 14 14 14 14 13 13 13 13 13 13 13 13 13 13 13 13 13 13 13 13 13 13 13 13 13 13
17 17 16 16 16 15 15 15 15 15 15 14 14 14 14 14 14 14 14 14 13 13 13 13 13 13 13 13 13 13 13 13 13 13 13 13 13 13 13 13 12 12 12
17 16 16 16 16 15 15 15 15 14 14 14 14 14 14 14 14 14 14 13 13 13 13 13 13 12 12 12 12 12 12 13 13 13 13 13 13 13 12 12 12 12 12
16 16 16 16 15 15 15 14 14 14 14 14 14 13 13 13 13 13 13 13 13 13 13 12 12 12 12 12 12 12 12 12 12 12 12 12 12 12 12 12 12 12 12
16 16 15 15 15 14 14 14 14 14 13 13 13 13 13 13 13 13 13 12 12 12 12 12 12 12 12 12 12 12 12 12 12 12 12 12 12 12 12 12 12 12 12
15 15 15 14 14 14 14 14 13 13 13 13 13 13 13 13 12 12 12 12 12 12 12 12 12 12 12 12 12 12 12 11 11 11 11 12 12 12 12 12 12 12 12
15 15 14 14 14 14 13 13 13 13 12 12 12 12 12 12 12 12 12 12 12 12 12 11 11 11 11 11 12 11 11 11 11 11 11 11 11 11 11 11 11 11 11
14 14 14 13 13 13 13 13 13 12 12 12 12 12 11 11 12 12 11 11 11 11 11 11 11 11 11 11 11 11 11 11 11 11 11 11 11 11 11 11 11 11 11
14 14 13 13 13 13 12 12 12 12 12 12 12 11 11 11 11 11 11 11 11 11 11 11 11 11 11 11 11 11 11 11 11 11 11 11 11 11 11 11 11 11 11
13 13 13 13 12 12 12 12 12 11 11 11 11 11 11 11 11 11 11 11 10 10 10 10 10 10 10 10 10 10 10 10 10 10 10 10 10 10 10 11 11 11 11
13 13 13 12 12 12 12 11 11 11 11 11 11 11 11 10 10 10 10 10 10 10 10 10 10 10 10 10 10 10 10 10 10 10 10 10 10 10 10 10 10 10 10
12 12 12 12 12 11 11 11 11 11 10 10 10 10 10 10 10 10 10 10 9 9 9 9 10 10 9 9 10 10 10 10 10 10 10 10 10 10 10 10 10 10 10
12 12 12 11 11 11 11 11 10 10 10 10 10 10 10 9 9 9 9 9 9 9 9 9 9 9 9 9 9 9 9 9 9 9 9 9 10 10 10 10 10 9 9
12 12 11 11 11 11 10 10 10 10 10 10 9 9 9 9 9 9 9 9 8 8 8 8 9 9 9 9 9 9 9 9 9 9 9 9 9 9 9 9 9 9 9
11 11 11 11 11 10 10 10 10 10 10 9 9 9 9 9 9 9 8 8 8 8 8 8 8 8 8 8 8 8 8 8 8 8 9 9 9 9 9 9 9 9 9
11 11 11 11 10 10 10 10 10 9 9 9 9 9 9 8 8 8 8 8 8 8 8 8 8 8 8 8 8 8 8 8 8 8 8 8 8 8 8 8 8 8 8
11 10 10 10 10 10 10 10 9 9 9 9 9 8 8 8 8 8 8 8 8 8 8 8 8 8 8 8 8 8 8 8 8 8 8 8 8 8 8 8 8 8 8
10 10 10 10 10 10 9 9 9 9 9 9 8 8 8 8 8 8 8 8 8 8 8 8 8 7 7 7 7 7 7 7 7 8 8 8 7 7 7 7 7 7 7
10 10 10 9 9 9 9 9 9 9 9 8 8 8 8 8 8 8 8 8 7 7 7 7 7 7 7 7 7 7 7 7 7 7 7 7 7 7 7 7 7 7 7
Wind_Speed
4 4 3 3 3 3 2 2 2 2 2 2 2 2 2 2 2 1 1 1 1 1 1 1 1 1 2 1 1 2 2 3 3 1 1 0 1 1 1 2 2 2 3
5 5 4 3 3 3 2 1 2 2 2 2 2 2 1 1 1 1 1 1 1 0 1 1 1 1 2 2 1 2 1 2 3 2 1 0 1 2 1 1 1 2 3
5 5 4 3 3 2 2 1 1 2 1 1 1 1 0 0 1 1 0 1 1 1 0 0 0 1 2 2 2 2 1 1 2 2 1 1 1 1 0 1 1 1 2
5 5 4 3 3 2 2 1 1 1 1 1 0 0 1 0 0 0 1 0 0 1 1 0 0 1 1 1 1 1 1 1 1 1 1 1 1 1 0 1 1 2 2
5 5 4 3 3 2 1 1 1 1 1 0 0 1 1 1 1 0 0 1 1 1 1 1 0 0 0 1 1 1 1 1 1 1 1 0 1 1 2 2 2 2 2
6 5 4 3 3 2 2 1 1 0 0 0 0 1 2 2 1 1 1 1 1 1 1 2 1 1 1 1 0 1 3 3 3 2 2 2 3 3 2 2 1 0 2
5 4 4 4 3 2 2 2 1 1 0 0 1 1 2 2 2 2 2 1 1 2 2 2 2 2 1 1 1 2 1 3 4 5 4 4 4 4 3 2 2 3 3
4 4 4 4 3 2 2 2 2 1 1 1 1 1 1 2 2 2 2 1 1 2 2 3 2 3 3 1 1 2 2 3 3 3 5 6 5 5 5 4 5 3 2
4 4 4 4 4 3 3 3 2 2 2 2 2 2 1 3 3 2 1 1 1 2 2 2 2 2 2 1 1 2 3 4 4 4 5 6 7 6 4 2 1 1 2
4 4 3 3 4 4 4 3 2 1 2 2 2 2 2 3 2 2 1 1 1 2 2 2 3 2 2 1 1 2 3 5 4 3 3 4 4 5 6 5 5 4 2
3 3 3 2 3 3 2 2 1 1 1 1 2 2 2 2 3 2 2 2 2 2 2 2 3 3 3 3 3 3 6 5 3 3 3 3 3 3 4 5 6 5 5
2 2 1 1 1 2 2 1 1 1 1 1 1 2 2 3 3 2 2 2 2 3 3 3 3 4 5 5 4 5 5 3 1 1 2 3 3 4 4 5 6 6 6
3 2 1 1 1 1 2 2 1 1 1 1 1 2 3 3 3 3 3 3 3 3 3 4 4 5 5 4 5 5 3 1 1 2 3 4 4 4 3 3 3 3 4
2 2 1 1 1 0 1 1 2 2 2 2 2 2 3 3 3 3 3 3 3 3 3 3 4 4 3 3 4 3 2 3 3 4 4 4 3 2 2 3 3 2 2
2 1 1 1 1 0 1 1 2 3 4 4 3 3 2 4 5 5 3 2 3 3 1 1 1 1 2 2 2 3 3 2 3 3 3 3 3 3 3 2 3 2 3
2 1 1 1 1 1 0 2 3 2 2 2 3 3 4 5 5 4 4 4 4 3 2 1 2 2 2 3 3 4 3 3 4 3 3 3 3 3 3 3 2 3 4
2 2 1 1 1 1 1 1 2 4 4 3 3 4 4 5 4 3 3 3 3 3 2 2 3 3 3 3 3 4 4 4 3 3 3 4 3 3 3 3 3 3 3
1 1 2 2 2 1 1 1 1 1 2 4 4 5 4 4 3 3 2 1 2 0 2 3 3 3 3 3 3 3 3 3 3 3 3 3 3 3 3 3 3 3 3
1 0 1 2 1 1 0 0 0 0 1 1 2 4 5 4 3 3 1 0 1 2 3 3 3 3 3 3 3 3 3 3 3 3 3 3 3 3 3 4 3 4 3
1 2 1 1 1 0 0 0 0 1 1 1 1 2 2 2 2 3 2 1 2 2 3 3 3 3 3 3 3 3 2 2 3 3 3 3 3 3 4 4 4 3 3
1 1 3 2 0 1 1 2 2 2 2 2 2 2 1 0 1 2 2 2 3 3 3 3 3 3 3 3 3 3 3 3 3 3 3 3 3 3 3 3 3 3 3
1 0 0 0 1 1 2 2 2 2 2 2 3 3 2 1 2 2 2 3 4 4 3 3 3 4 3 3 3 3 3 3 3 3 4 3 3 3 3 2 2 2 2
1 0 0 0 0 1 1 1 1 2 3 3 2 2 2 2 3 3 3 4 3 3 3 3 3 3 3 3 3 3 3 4 4 4 3 3 3 3 2 3 3 3 3
1 1 0 0 0 1 1 2 2 3 3 3 2 2 2 3 4 4 4 4 4 3 3 3 3 4 4 3 3 3 3 4 4 4 4 4 3 3 3 3 3 3 3
1 1 0 1 1 1 2 2 2 3 3 3 3 3 3 3 4 4 3 3 3 4 4 4 3 4 4 4 3 4 4 5 4 3 3 3 3 3 3 3 2 2 3
0 0 0 1 1 2 2 3 3 3 3 3 3 3 4 4 4 4 3 3 3 3 4 4 4 4 4 3 4 4 4 4 4 4 3 2 2 3 3 3 3 2 3
Wind_Direction
145 136 122 117 111 96 99 119 121 100 101 106 103 71 39 24 24 39 350 18 45 348 4 37 11 17 39 31 71 94 100 126 152 246 253 227 164 192 163 162 179 187 217
138 132 132 131 120 108 105 131 129 121 111 115 100 85 64 33 24 33 359 24 51 2 343 23 356 27 37 33 78 92 104 128 147 176 272 262 244 231 219 204 197 204 217
142 135 130 131 132 135 139 136 123 116 101 94 101 106 121 63 14 341 76 58 29 348 341 65 338 44 33 43 69 93 99 91 108 140 220 254 286 254 304 292 277 258 227
146 142 142 148 152 156 155 138 126 127 120 98 114 197 236 233 34 34 64 86 10 348 354 33 229 126 143 115 76 113 116 92 93 118 182 268 286 276 170 261 303 295 266
151 152 164 164 156 151 145 143 130 145 158 154 118 324 305 262 248 150 218 244 246 300 341 322 272 113 153 176 159 179 154 153 162 186 240 291 286 279 243 239 250 283 286
158 171 175 166 164 169 170 156 138 110 8 95 121 298 301 293 284 260 201 222 213 202 262 296 294 295 348 8 3 193 187 189 200 203 225 232 243 238 238 243 206 110 279
164 171 175 173 174 183 180 155 164 187 172 125 260 286 289 301 312 301 291 218 202 207 223 253 282 287 301 278 301 310 265 220 203 195 210 231 228 225 209 232 224 205 230
162 171 178 175 179 182 180 195 208 203 200 220 246 271 293 315 326 309 311 258 210 219 229 226 235 268 267 229 250 297 286 261 232 212 210 226 226 219 207 212 221 228 267
171 186 193 185 186 191 201 215 217 201 217 232 233 239 268 299 322 319 322 279 243 262 259 245 213 226 265 254 218 269 294 291 276 245 232 237 237 228 205 177 181 171 262
190 195 196 190 193 199 204 207 205 194 221 238 252 246 238 264 294 297 257 219 255 282 285 265 238 235 263 267 208 221 260 272 276 280 284 285 261 243 224 199 189 192 211
184 171 174 180 192 194 202 200 186 198 238 269 269 278 265 268 284 274 240 211 223 249 266 271 267 267 262 261 236 232 246 254 261 251 264 279 278 255 236 214 200 196 198
132 128 140 159 176 158 159 188 195 186 196 292 306 314 309 304 297 277 255 238 222 213 241 250 258 265 260 263 257 256 256 260 268 265 271 275 270 262 252 232 218 216 217
105 112 95 86 101 136 160 185 191 187 210 259 271 284 299 303 301 298 278 266 254 240 245 250 259 266 267 267 267 273 265 240 232 251 260 261 257 255 254 248 243 229 243
124 134 133 123 114 52 179 191 201 209 214 232 247 268 289 298 296 293 285 275 270 258 256 268 280 276 267 277 294 293 263 235 229 242 253 261 268 269 258 237 235 219 223
120 138 136 144 162 185 275 248 219 220 211 214 226 229 244 271 272 262 253 262 255 246 250 307 319 325 308 301 297 285 272 260 254 258 261 273 274 267 264 252 229 215 213
131 175 186 188 191 182 169 352 353 319 293 263 242 244 260 261 279 265 259 259 250 209 158 204 250 250 254 262 272 283 275 263 257 256 256 255 254 255 264 262 237 221 223
159 188 196 195 189 192 198 180 340 344 345 323 305 291 280 288 299 294 278 278 273 177 171 223 241 249 252 256 254 257 265 267 261 252 249 252 252 253 255 257 244 234 236
152 162 160 183 189 191 200 203 207 268 325 330 321 314 310 310 316 311 307 3 350 357 223 238 247 253 254 252 254 257 265 274 269 260 252 256 254 252 256 259 249 238 241
48 248 180 175 194 203 204 170 349 318 299 320 340 340 338 339 343 346 28 41 276 278 263 258 258 259 259 258 259 261 264 272 279 270 263 259 254 250 255 255 247 244 239
24 30 59 148 173 188 190 200 243 250 273 301 298 298 340 16 2 345 335 297 285 286 278 272 273 268 256 254 256 259 267 277 286 279 272 264 259 251 249 249 246 243 241
101 37 50 60 238 232 221 223 226 231 248 271 281 288 317 270 276 285 289 279 271 269 274 278 275 273 266 261 261 263 265 271 272 272 268 268 264 260 257 252 249 242 236
117 126 42 264 266 245 243 232 229 231 244 260 279 300 299 284 278 275 271 273 269 268 263 269 276 272 265 263 256 259 265 268 273 269 266 265 263 258 253 249 250 242 235
125 148 212 242 257 280 291 263 238 237 247 257 266 281 289 282 279 274 272 271 269 270 275 268 272 278 275 268 255 243 250 261 267 263 266 270 266 260 253 244 238 241 239
157 163 180 253 266 257 249 256 256 252 248 253 260 266 270 271 275 278 276 273 272 268 268 260 257 267 269 273 267 258 261 271 272 261 247 248 254 259 258 252 244 240 237
113 98 144 232 238 248 256 254 255 266 268 264 264 265 269 273 276 277 277 277 277 271 270 266 259 265 264 265 269 279 292 294 288 275 255 244 243 245 249 250 246 246 244
109 154 267 259 257 254 252 253 257 264 267 271 272 267 270 278 285 286 285 288 285 281 280 273 261 258 263 272 285 297 298 300 298 290 265 247 247 257 260 251 246 243 249
Height
1514 1515 1515 1515 1516 1516 1516 1516 1515 1515 1515 1515 1514 1513 1512 1511 1511 1510 1510 1509 1508 1508 1508 1508 1507 1507 1507 1507 1507 1508 1508 1509 1509 1509 1510 1511 1511 1510 1510 1510 1509 1509 1508
1513 1514 1514 1514 1515 1515 1515 1515 1514 1514 1514 1514 1513 1512 1511 1510 1509 1509 1508 1508 1507 1507 1506 1506 1505 1505 1505 1505 1505 1506 1506 1506 1507 1507 1508 1508 1508 1508 1508 1508 1507 1507 1507
1512 1512 1513 1513 1513 1513 1513 1513 1513 1513 1513 1512 1511 1510 1510 1509 1508 1507 1507 1506 1505 1505 1505 1504 1504 1504 1503 1503 1504 1504 1504 1505 1505 1505 1505 1506 1506 1506 1506 1506 1505 1505 1505
1510 1511 1511 1511 1512 1512 1512 1512 1512 1512 1511 1510 1510 1509 1508 1507 1506 1506 1505 1504 1503 1503 1503 1502 1502 1502 1502 1502 1502 1502 1502 1502 1503 1503 1503 1503 1504 1504 1504 1503 1503 1503 1503
1509 1509 1509 1510 1510 1511 1510 1510 1510 1510 1509 1508 1508 1507 1506 1505 1504 1504 1503 1502 1501 1501 1501 1500 1500 1500 1500 1500 1500 1500 1500 1500 1501 1501 1501 1501 1501 1501 1501 1500 1500 1500 1500
1507 1507 1508 1508 1509 1509 1509 1509 1509 1508 1507 1507 1506 1505 1504 1503 1502 1502 1501 1500 1499 1499 1498 1498 1498 1498 1498 1498 1498 1498 1498 1498 1498 1498 1498 1498 1498 1498 1498 1498 1497 1497 1497
1505 1505 1506 1506 1506 1507 1507 1507 1506 1506 1505 1505 1504 1503 1501 1501 1500 1499 1498 1498 1497 1496 1496 1495 1495 1495 1495 1495 1495 1495 1496 1496 1496 1496 1495 1495 1495 1495 1495 1495 1495 1494 1494
1503 1503 1504 1504 1504 1504 1505 1504 1504 1504 1503 1502 1501 1500 1499 1498 1498 1497 1496 1495 1494 1494 1493 1493 1492 1492 1492 1492 1492 1492 1492 1492 1492 1492 1492 1492 1492 1492 1492 1492 1491 1491 1491
1501 1501 1502 1502 1502 1502 1502 1502 1501 1501 1500 1500 1499 1498 1497 1496 1495 1494 1494 1492 1492 1491 1491 1490 1490 1489 1489 1489 1489 1488 1488 1488 1488 1488 1488 1489 1489 1489 1489 1488 1488 1488 1487
1498 1499 1499 1499 1499 1499 1499 1499 1498 1498 1497 1497 1496 1495 1494 1493 1493 1492 1491 1490 1489 1488 1488 1487 1487 1487 1486 1486 1486 1485 1484 1484 1484 1484 1484 1484 1484 1484 1484 1484 1484 1484 1484
1496 1497 1496 1496 1496 1496 1496 1496 1495 1495 1494 1494 1493 1492 1491 1491 1490 1489 1488 1487 1486 1486 1485 1484 1484 1484 1484 1483 1483 1482 1482 1481 1480 1480 1480 1480 1480 1480 1480 1480 1480 1480 1480
1494 1494 1493 1493 1493 1493 1493 1493 1492 1492 1491 1491 1490 1489 1488 1487 1487 1486 1485 1484 1483 1482 1482 1481 1481 1481 1481 1480 1480 1479 1479 1478 1477 1476 1476 1475 1475 1475 1475 1476 1476 1476 1477
1491 1491 1491 1491 1491 1491 1490 1490 1489 1488 1488 1487 1487 1485 1484 1484 1483 1482 1481 1480 1480 1479 1478 1478 1477 1477 1477 1476 1476 1475 1475 1474 1473 1473 1472 1471 1472 1471 1471 1471 1471 1472 1472
1489 1488 1489 1489 1488 1488 1488 1487 1486 1485 1485 1484 1483 1482 1481 1480 1479 1478 1477 1476 1475 1475 1474 1473 1473 1473 1473 1472 1472 1471 1471 1470 1470 1469 1468 1468 1468 1468 1467 1467 1467 1467 1467
1486 1486 1486 1487 1486 1486 1485 1485 1484 1483 1482 1481 1480 1479 1478 1476 1476 1475 1474 1472 1471 1471 1470 1469 1469 1469 1468 1468 1468 1467 1467 1466 1465 1465 1464 1463 1463 1463 1463 1463 1463 1463 1463
1484 1484 1484 1484 1484 1483 1483 1482 1482 1481 1480 1479 1478 1478 1476 1475 1473 1472 1471 1469 1468 1467 1467 1465 1465 1465 1464 1464 1463 1463 1463 1462 1461 1461 1460 1460 1459 1459 1459 1459 1459 1459 1458
1482 1482 1482 1481 1481 1481 1480 1479 1479 1478 1478 1477 1476 1475 1473 1472 1470 1469 1468 1467 1465 1464 1463 1462 1462 1461 1461 1460 1460 1459 1458 1458 1457 1457 1456 1456 1455 1455 1455 1454 1454 1454 1454
1479 1479 1479 1479 1479 1478 1478 1477 1476 1475 1474 1473 1473 1472 1470 1469 1467 1466 1465 1464 1462 1461 1460 1459 1458 1458 1457 1457 1456 1455 1454 1454 1453 1452 1452 1451 1451 1451 1450 1450 1450 1449 1449
1478 1477 1477 1477 1476 1476 1476 1475 1474 1473 1472 1471 1470 1469 1468 1466 1465 1464 1462 1461 1459 1458 1457 1456 1455 1455 1454 1453 1452 1452 1451 1450 1449 1448 1447 1447 1447 1446 1446 1445 1445 1445 1445
1476 1476 1475 1475 1474 1474 1474 1473 1472 1471 1470 1469 1467 1466 1465 1464 1462 1461 1459 1458 1457 1455 1454 1453 1452 1451 1450 1449 1448 1447 1446 1445 1444 1443 1443 1442 1442 1442 1441 1441 1440 1440 1439
1475 1474 1474 1473 1473 1473 1472 1471 1470 1469 1468 1466 1465 1464 1463 1461 1460 1458 1457 1456 1454 1453 1451 1450 1448 1447 1446 1445 1444 1443 1442 1441 1440 1439 1439 1438 1437 1437 1436 1436 1435 1435 1435
1473 1473 1473 1472 1471 1471 1470 1469 1468 1467 1466 1464 1463 1462 1461 1459 1457 1456 1454 1453 1452 1450 1448 1447 1445 1443 1442 1441 1440 1439 1438 1437 1436 1435 1435 1434 1433 1432 1431 1431 1431 1431 1431
1472 1471 1471 1470 1470 1469 1468 1466 1465 1464 1463 1462 1460 1459 1457 1456 1454 1453 1451 1450 1448 1447 1445 1443 1442 1440 1439 1437 1436 1435 1434 1432 1432 1431 1430 1429 1429 1428 1427 1427 1427 1427 1427
1470 1470 1469 1468 1467 1466 1465 1464 1463 1461 1460 1459 1457 1456 1454 1453 1451 1450 1448 1446 1445 1443 1441 1440 1438 1437 1435 1434 1433 1431 1430 1429 1428 1427 1426 1425 1425 1424 1424 1423 1423 1423 1423
1468 1468 1467 1466 1465 1464 1463 1462 1460 1459 1457 1456 1454 1453 1451 1450 1448 1447 1445 1443 1441 1439 1438 1436 1435 1433 1432 1430 1429 1427 1426 1425 1424 1423 1422 1422 1421 1421 1420 1420 1420 1419 1420
1466 1466 1465 1464 1463 1461 1460 1459 1457 1456 1454 1453 1452 1450 1448 1447 1445 1443 1441 1439 1437 1436 1434 1432 1431 1429 1428 1426 1425 1424 1423 1422 1420 1419 1418 1418 1418 1417 1417 1417 1417 1417 1416